Time,TemperatureF,DewpointF,PressureIn,WindDirection,WindDirectionDegrees,WindSpeedMPH,WindSpeedGustMPH,Humidity,HourlyPrecipIn,Conditions,Clouds,dailyrainin,SoftwareType,DateUTC
2013-07-19 00:01:00,55.2,40.3,29.90,SSW,194,4.9,4.9,57,0.00,,,0.00,VWS V14.01,2013-07-19 07:01:00,
2013-07-19 00:06:00,55.2,40.7,29.93,WSW,243,2.7,3.1,58,0.00,,,0.00,VWS V14.01,2013-07-19 07:06:00,
2013-07-19 00:11:00,55.2,40.7,29.93,SSW,199,2.2,5.4,58,0.00,,,0.00,VWS V14.01,2013-07-19 07:11:00,
2013-07-19 00:17:00,55.2,41.2,29.93,ESE,114,3.6,4.0,59,0.00,,,0.00,VWS V14.01,2013-07-19 07:17:00,
2013-07-19 00:22:00,55.2,41.2,29.90,SE,130,2.7,2.7,59,0.00,,,0.00,VWS V14.01,2013-07-19 07:22:00,
2013-07-19 00:26:00,55.2,41.2,29.90,South,181,3.1,6.3,59,0.00,,,0.00,VWS V14.01,2013-07-19 07:26:00,
2013-07-19 00:32:00,55.4,41.8,29.90,SW,218,5.8,5.8,60,0.00,,,0.00,VWS V14.01,2013-07-19 07:32:00,
2013-07-19 00:37:00,55.2,41.6,29.90,SSE,151,2.7,3.6,60,0.00,,,0.00,VWS V14.01,2013-07-19 07:37:00,
2013-07-19 00:42:00,55.2,41.6,29.90,South,173,3.1,4.9,60,0.00,,,0.00,VWS V14.01,2013-07-19 07:42:00,
2013-07-19 00:47:00,55.2,42.0,29.90,SW,220,3.1,4.0,61,0.00,,,0.00,VWS V14.01,2013-07-19 07:47:00,
2013-07-19 00:52:00,55.2,42.0,29.90,SW,222,2.7,3.1,61,0.00,,,0.00,VWS V14.01,2013-07-19 07:52:00,
2013-07-19 00:57:00,55.2,42.0,29.90,South,186,6.3,6.3,61,0.00,,,0.00,VWS V14.01,2013-07-19 07:57:00,
2013-07-19 01:02:00,55.0,41.8,29.90,SSE,159,4.0,4.0,61,0.00,,,0.00,VWS V14.01,2013-07-19 08:02:00,
2013-07-19 01:07:00,55.0,42.3,29.90,SSE,151,5.4,5.4,62,0.00,,,0.00,VWS V14.01,2013-07-19 08:07:00,
2013-07-19 01:12:00,55.0,42.7,29.90,SE,125,7.6,7.6,63,0.00,,,0.00,VWS V14.01,2013-07-19 08:12:00,
2013-07-19 01:17:00,55.0,42.7,29.90,SW,229,3.1,3.1,63,0.00,,,0.00,VWS V14.01,2013-07-19 08:17:00,
2013-07-19 01:22:00,55.0,42.7,29.90,SSW,211,2.7,3.6,63,0.00,,,0.00,VWS V14.01,2013-07-19 08:22:00,
2013-07-19 01:27:00,55.0,43.1,29.90,South,171,4.9,4.9,64,0.00,,,0.00,VWS V14.01,2013-07-19 08:27:00,
2013-07-19 01:32:00,54.9,42.9,29.90,SSW,195,4.0,4.0,64,0.00,,,0.00,VWS V14.01,2013-07-19 08:32:00,
2013-07-19 01:37:00,54.9,42.9,29.90,SSW,210,0.0,6.3,64,0.00,,,0.00,VWS V14.01,2013-07-19 08:37:00,
2013-07-19 01:42:00,54.9,42.9,29.90,SW,225,3.6,3.6,64,0.00,,,0.00,VWS V14.01,2013-07-19 08:42:00,
2013-07-19 01:47:00,54.9,43.3,29.90,SW,229,3.1,3.1,65,0.00,,,0.00,VWS V14.01,2013-07-19 08:47:00,
2013-07-19 01:52:00,54.9,43.3,29.90,SSE,156,4.0,4.0,65,0.00,,,0.00,VWS V14.01,2013-07-19 08:52:00,
2013-07-19 01:57:00,54.9,43.3,29.90,SE,138,0.0,2.2,65,0.00,,,0.00,VWS V14.01,2013-07-19 08:57:00,
2013-07-19 02:02:00,54.9,43.3,29.90,SW,223,2.7,6.3,65,0.00,,,0.00,VWS V14.01,2013-07-19 09:02:00,
2013-07-19 02:07:00,54.7,43.6,29.90,South,172,4.0,4.0,66,0.00,,,0.00,VWS V14.01,2013-07-19 09:07:00,
2013-07-19 02:12:00,54.7,43.6,29.90,SSE,160,3.1,4.0,66,0.00,,,0.00,VWS V14.01,2013-07-19 09:12:00,
2013-07-19 02:17:00,54.9,44.1,29.90,SSW,202,0.0,0.0,67,0.00,,,0.00,VWS V14.01,2013-07-19 09:17:00,
2013-07-19 02:22:00,54.7,44.0,29.87,South,191,4.9,4.9,67,0.00,,,0.00,VWS V14.01,2013-07-19 09:22:00,
2013-07-19 02:27:00,54.9,44.1,29.87,SSW,194,0.0,3.6,67,0.00,,,0.00,VWS V14.01,2013-07-19 09:27:00,
2013-07-19 02:32:00,54.7,44.0,29.87,SSE,158,6.3,6.3,67,0.00,,,0.00,VWS V14.01,2013-07-19 09:32:00,
2013-07-19 02:37:00,54.7,44.3,29.87,SE,142,3.1,3.1,68,0.00,,,0.00,VWS V14.01,2013-07-19 09:37:00,
2013-07-19 02:42:00,54.7,44.3,29.87,South,178,2.2,3.6,68,0.00,,,0.00,VWS V14.01,2013-07-19 09:42:00,
2013-07-19 02:47:00,54.7,44.3,29.87,SSW,195,4.0,4.9,68,0.00,,,0.00,VWS V14.01,2013-07-19 09:47:00,
2013-07-19 02:52:00,54.9,44.9,29.87,South,188,2.7,2.7,69,0.00,,,0.00,VWS V14.01,2013-07-19 09:52:00,
2013-07-19 02:57:00,54.9,44.9,29.87,SSW,208,0.0,4.0,69,0.00,,,0.00,VWS V14.01,2013-07-19 09:57:00,
2013-07-19 03:02:00,54.9,44.9,29.87,SW,233,2.7,4.9,69,0.00,,,0.00,VWS V14.01,2013-07-19 10:02:00,
2013-07-19 03:07:00,54.9,44.9,29.87,SSW,205,2.7,4.0,69,0.00,,,0.00,VWS V14.01,2013-07-19 10:07:00,
2013-07-19 03:12:00,54.7,44.7,29.87,SSE,150,3.6,3.6,69,0.00,,,0.00,VWS V14.01,2013-07-19 10:12:00,
2013-07-19 03:17:00,54.9,45.3,29.87,SSW,194,3.1,3.1,70,0.00,,,0.00,VWS V14.01,2013-07-19 10:17:00,
2013-07-19 03:22:00,54.9,45.3,29.87,South,173,0.0,4.0,70,0.00,,,0.00,VWS V14.01,2013-07-19 10:22:00,
2013-07-19 03:27:00,54.9,45.3,29.87,SSE,167,3.1,3.1,70,0.00,,,0.00,VWS V14.01,2013-07-19 10:27:00,
2013-07-19 03:32:00,54.9,45.3,29.87,WSW,241,0.0,2.7,70,0.00,,,0.00,VWS V14.01,2013-07-19 10:32:00,
2013-07-19 03:37:00,54.9,45.3,29.87,SW,234,0.0,0.0,70,0.00,,,0.00,VWS V14.01,2013-07-19 10:37:00,
2013-07-19 03:42:00,54.9,45.3,29.87,SSE,163,2.7,4.0,70,0.00,,,0.00,VWS V14.01,2013-07-19 10:42:00,
2013-07-19 03:47:00,54.9,45.3,29.87,South,186,0.0,2.7,70,0.00,,,0.00,VWS V14.01,2013-07-19 10:47:00,
2013-07-19 03:52:00,54.9,45.3,29.87,South,180,4.0,4.0,70,0.00,,,0.00,VWS V14.01,2013-07-19 10:52:00,
2013-07-19 03:57:00,54.9,45.3,29.87,SSE,168,3.1,3.1,70,0.00,,,0.00,VWS V14.01,2013-07-19 10:57:00,
2013-07-19 04:02:00,54.9,45.7,29.87,SSW,196,3.6,3.6,71,0.00,,,0.00,VWS V14.01,2013-07-19 11:02:00,
2013-07-19 04:07:00,54.9,45.7,29.87,SSW,209,3.1,5.8,71,0.00,,,0.00,VWS V14.01,2013-07-19 11:07:00,
2013-07-19 04:12:00,55.0,45.8,29.87,South,190,3.6,3.6,71,0.00,,,0.00,VWS V14.01,2013-07-19 11:12:00,
2013-07-19 04:17:00,55.0,45.8,29.87,South,185,0.0,3.6,71,0.00,,,0.00,VWS V14.01,2013-07-19 11:17:00,
2013-07-19 04:22:00,54.9,45.7,29.87,South,191,3.1,5.4,71,0.00,,,0.00,VWS V14.01,2013-07-19 11:22:00,
2013-07-19 04:27:00,54.9,45.7,29.87,ESE,110,2.2,3.6,71,0.00,,,0.00,VWS V14.01,2013-07-19 11:27:00,
2013-07-19 04:32:00,54.9,45.7,29.87,SW,229,5.4,5.4,71,0.00,,,0.00,VWS V14.01,2013-07-19 11:32:00,
2013-07-19 04:37:00,54.7,45.5,29.87,SSW,204,2.7,3.6,71,0.00,,,0.00,VWS V14.01,2013-07-19 11:37:00,
2013-07-19 04:42:00,54.7,45.5,29.87,South,178,3.1,4.5,71,0.00,,,0.00,VWS V14.01,2013-07-19 11:42:00,
2013-07-19 04:47:00,54.7,45.5,29.87,South,184,5.4,5.4,71,0.00,,,0.00,VWS V14.01,2013-07-19 11:47:00,
2013-07-19 04:52:00,54.7,45.5,29.87,SE,143,2.7,5.4,71,0.00,,,0.00,VWS V14.01,2013-07-19 11:52:00,
2013-07-19 04:57:00,54.5,45.3,29.87,SSE,151,3.6,5.8,71,0.00,,,0.00,VWS V14.01,2013-07-19 11:57:00,
2013-07-19 05:02:00,54.5,45.3,29.87,SSW,208,2.2,4.9,71,0.00,,,0.00,VWS V14.01,2013-07-19 12:02:00,
2013-07-19 05:07:00,54.7,45.5,29.87,ESE,102,4.0,4.0,71,0.00,,,0.00,VWS V14.01,2013-07-19 12:07:00,
2013-07-19 05:12:00,54.7,45.8,29.87,South,191,5.4,5.4,72,0.00,,,0.00,VWS V14.01,2013-07-19 12:12:00,
2013-07-19 05:17:00,54.7,45.8,29.87,SE,127,0.0,4.9,72,0.00,,,0.00,VWS V14.01,2013-07-19 12:17:00,
2013-07-19 05:23:00,54.9,46.0,29.84,South,170,0.0,3.6,72,0.00,,,0.00,VWS V14.01,2013-07-19 12:23:00,
2013-07-19 05:28:00,54.9,46.0,29.84,South,185,3.6,3.6,72,0.00,,,0.00,VWS V14.01,2013-07-19 12:28:00,
2013-07-19 05:33:00,55.0,46.2,29.84,SSW,207,3.1,3.1,72,0.00,,,0.00,VWS V14.01,2013-07-19 12:33:00,
2013-07-19 05:38:00,55.0,46.2,29.87,SSE,162,2.7,5.4,72,0.00,,,0.00,VWS V14.01,2013-07-19 12:38:00,
2013-07-19 05:43:00,55.0,46.2,29.87,SE,143,4.0,4.0,72,0.00,,,0.00,VWS V14.01,2013-07-19 12:43:00,
2013-07-19 05:48:00,55.2,46.4,29.87,SSE,154,0.0,3.6,72,0.00,,,0.00,VWS V14.01,2013-07-19 12:48:00,
2013-07-19 05:53:00,55.2,46.4,29.87,SE,144,2.2,3.6,72,0.00,,,0.00,VWS V14.01,2013-07-19 12:53:00,
2013-07-19 05:58:00,55.4,46.5,29.87,SE,127,3.6,3.6,72,0.00,,,0.00,VWS V14.01,2013-07-19 12:58:00,
2013-07-19 06:03:00,55.4,46.5,29.87,SE,144,4.5,4.5,72,0.00,,,0.00,VWS V14.01,2013-07-19 13:03:00,
2013-07-19 06:08:00,55.6,46.7,29.87,South,176,4.0,4.0,72,0.00,,,0.00,VWS V14.01,2013-07-19 13:08:00,
2013-07-19 06:13:00,55.6,46.7,29.87,SW,216,2.7,4.9,72,0.00,,,0.00,VWS V14.01,2013-07-19 13:13:00,
2013-07-19 06:18:00,55.6,46.7,29.87,SE,129,3.1,3.1,72,0.00,,,0.00,VWS V14.01,2013-07-19 13:18:00,
2013-07-19 06:23:00,55.8,47.2,29.90,South,174,2.7,3.1,73,0.00,,,0.00,VWS V14.01,2013-07-19 13:23:00,
2013-07-19 06:26:00,55.8,47.2,29.90,SSE,165,3.1,3.1,73,0.00,,,0.00,VWS V14.01,2013-07-19 13:26:00,
2013-07-19 06:31:00,55.8,47.2,29.90,SSW,206,4.0,4.0,73,0.00,,,0.00,VWS V14.01,2013-07-19 13:31:00,
2013-07-19 06:36:00,55.8,47.2,29.90,SW,218,3.1,3.1,73,0.00,,,0.00,VWS V14.01,2013-07-19 13:36:00,
2013-07-19 06:41:00,55.8,47.2,29.90,SSE,151,4.0,4.0,73,0.00,,,0.00,VWS V14.01,2013-07-19 13:41:00,
2013-07-19 06:46:00,55.8,47.2,29.90,SSW,213,2.7,2.7,73,0.00,,,0.00,VWS V14.01,2013-07-19 13:46:00,
2013-07-19 06:51:00,55.9,47.4,29.90,SSW,201,3.1,3.6,73,0.00,,,0.00,VWS V14.01,2013-07-19 13:51:00,
2013-07-19 06:56:00,56.1,47.6,29.90,SSW,206,2.2,2.2,73,0.00,,,0.00,VWS V14.01,2013-07-19 13:56:00,
2013-07-19 07:01:00,56.1,47.6,29.90,SW,226,4.9,4.9,73,0.00,,,0.00,VWS V14.01,2013-07-19 14:01:00,
2013-07-19 07:06:00,56.3,47.8,29.90,South,181,2.7,3.1,73,0.00,,,0.00,VWS V14.01,2013-07-19 14:06:00,
2013-07-19 07:11:00,56.3,47.8,29.90,SW,214,0.0,3.6,73,0.00,,,0.00,VWS V14.01,2013-07-19 14:11:00,
2013-07-19 07:16:00,56.5,47.9,29.90,South,188,2.7,3.1,73,0.00,,,0.00,VWS V14.01,2013-07-19 14:16:00,
2013-07-19 07:21:00,56.7,48.1,29.90,SW,217,0.0,2.7,73,0.00,,,0.00,VWS V14.01,2013-07-19 14:21:00,
2013-07-19 07:26:00,56.7,48.1,29.90,SSE,161,2.2,3.6,73,0.00,,,0.00,VWS V14.01,2013-07-19 14:26:00,
2013-07-19 07:31:00,56.8,48.3,29.90,SW,227,2.7,2.7,73,0.00,,,0.00,VWS V14.01,2013-07-19 14:31:00,
2013-07-19 07:36:00,56.8,48.3,29.90,SSW,210,0.0,5.4,73,0.00,,,0.00,VWS V14.01,2013-07-19 14:36:00,
2013-07-19 07:41:00,56.8,48.3,29.90,SW,215,2.7,3.6,73,0.00,,,0.00,VWS V14.01,2013-07-19 14:41:00,
2013-07-19 07:46:00,57.0,48.5,29.90,WNW,284,2.7,3.6,73,0.00,,,0.00,VWS V14.01,2013-07-19 14:46:00,
2013-07-19 07:51:00,57.0,48.5,29.90,SSW,195,2.7,2.7,73,0.00,,,0.00,VWS V14.01,2013-07-19 14:51:00,
2013-07-19 07:56:00,57.0,48.5,29.90,SW,224,2.7,3.1,73,0.00,,,0.00,VWS V14.01,2013-07-19 14:56:00,
2013-07-19 08:01:00,57.2,48.3,29.90,South,189,3.6,3.6,72,0.00,,,0.00,VWS V14.01,2013-07-19 15:01:00,
2013-07-19 08:06:00,57.2,48.3,29.90,South,187,2.7,3.6,72,0.00,,,0.00,VWS V14.01,2013-07-19 15:06:00,
2013-07-19 08:11:00,57.4,48.1,29.90,SW,215,0.0,2.2,71,0.00,,,0.00,VWS V14.01,2013-07-19 15:11:00,
2013-07-19 08:16:00,57.6,48.2,29.90,SW,229,4.9,4.9,71,0.00,,,0.00,VWS V14.01,2013-07-19 15:16:00,
2013-07-19 08:21:00,57.6,48.2,29.90,SW,214,5.8,5.8,71,0.00,,,0.00,VWS V14.01,2013-07-19 15:21:00,
2013-07-19 08:26:00,57.7,48.0,29.90,South,178,5.4,5.4,70,0.00,,,0.00,VWS V14.01,2013-07-19 15:26:00,
2013-07-19 08:31:00,57.7,47.7,29.90,South,178,2.7,3.6,69,0.00,,,0.00,VWS V14.01,2013-07-19 15:31:00,
2013-07-19 08:36:00,57.7,46.9,29.90,SW,236,5.4,5.4,67,0.00,,,0.00,VWS V14.01,2013-07-19 15:36:00,
2013-07-19 08:41:00,57.7,46.1,29.90,SW,219,4.0,4.0,65,0.00,,,0.00,VWS V14.01,2013-07-19 15:41:00,
2013-07-19 08:46:00,57.9,45.0,29.90,SSW,204,0.0,4.0,62,0.00,,,0.00,VWS V14.01,2013-07-19 15:46:00,
2013-07-19 08:51:00,58.1,44.3,29.90,SW,214,2.7,4.0,60,0.00,,,0.00,VWS V14.01,2013-07-19 15:51:00,
2013-07-19 08:56:00,58.3,43.6,29.90,SSE,165,3.6,5.4,58,0.00,,,0.00,VWS V14.01,2013-07-19 15:56:00,
2013-07-19 09:02:00,58.3,41.7,29.90,SSW,207,3.1,5.4,54,0.00,,,0.00,VWS V14.01,2013-07-19 16:02:00,
2013-07-19 09:07:00,58.1,40.1,29.90,SSW,208,2.2,4.0,51,0.00,,,0.00,VWS V14.01,2013-07-19 16:07:00,
2013-07-19 09:12:00,58.5,39.4,29.90,SSW,204,2.7,4.0,49,0.00,,,0.00,VWS V14.01,2013-07-19 16:12:00,
2013-07-19 09:17:00,58.6,38.5,29.90,East,88,3.6,4.0,47,0.00,,,0.00,VWS V14.01,2013-07-19 16:17:00,
2013-07-19 09:22:00,59.2,38.4,29.90,SW,231,5.4,5.4,46,0.00,,,0.00,VWS V14.01,2013-07-19 16:22:00,
2013-07-19 09:27:00,59.2,36.1,29.90,SW,226,3.6,4.5,42,0.00,,,0.00,VWS V14.01,2013-07-19 16:27:00,
2013-07-19 09:32:00,59.7,36.0,29.90,South,186,2.2,4.0,41,0.00,,,0.00,VWS V14.01,2013-07-19 16:32:00,
2013-07-19 09:37:00,59.9,34.2,29.90,SW,234,5.8,6.3,38,0.00,,,0.00,VWS V14.01,2013-07-19 16:37:00,
2013-07-19 09:42:00,59.9,32.9,29.90,WSW,237,3.6,4.0,36,0.00,,,0.00,VWS V14.01,2013-07-19 16:42:00,
2013-07-19 09:47:00,60.3,33.2,29.90,SSW,192,2.7,5.4,36,0.00,,,0.00,VWS V14.01,2013-07-19 16:47:00,
2013-07-19 09:52:00,60.3,32.5,29.90,SSW,213,3.1,4.0,35,0.00,,,0.00,VWS V14.01,2013-07-19 16:52:00,
2013-07-19 09:57:00,60.6,32.8,29.90,WSW,239,4.0,4.0,35,0.00,,,0.00,VWS V14.01,2013-07-19 16:57:00,
2013-07-19 10:02:00,61.0,32.4,29.90,South,174,3.6,3.6,34,0.00,,,0.00,VWS V14.01,2013-07-19 17:02:00,
2013-07-19 10:07:00,60.8,32.3,29.90,SW,230,0.0,4.0,34,0.00,,,0.00,VWS V14.01,2013-07-19 17:07:00,
2013-07-19 10:12:00,61.2,32.6,29.90,WSW,245,3.6,3.6,34,0.00,,,0.00,VWS V14.01,2013-07-19 17:12:00,
2013-07-19 10:17:00,61.3,31.2,29.90,WSW,244,2.7,4.0,32,0.00,,,0.00,VWS V14.01,2013-07-19 17:17:00,
2013-07-19 10:22:00,61.9,32.5,29.90,WSW,249,3.6,4.0,33,0.00,,,0.00,VWS V14.01,2013-07-19 17:22:00,
2013-07-19 10:27:00,62.1,31.1,29.90,SSW,207,0.0,4.0,31,0.00,,,0.00,VWS V14.01,2013-07-19 17:27:00,
2013-07-19 10:32:00,62.2,29.6,29.90,SW,219,2.7,5.8,29,0.00,,,0.00,VWS V14.01,2013-07-19 17:32:00,
2013-07-19 10:37:00,62.4,28.9,29.90,SSW,204,0.0,2.2,28,0.00,,,0.00,VWS V14.01,2013-07-19 17:37:00,
2013-07-19 10:42:00,63.1,28.6,29.90,WSW,241,5.4,5.4,27,0.00,,,0.00,VWS V14.01,2013-07-19 17:42:00,
2013-07-19 10:47:00,63.1,27.7,29.90,SSW,206,3.6,4.9,26,0.00,,,0.00,VWS V14.01,2013-07-19 17:47:00,
2013-07-19 10:52:00,63.5,28.0,29.90,SW,226,4.0,4.9,26,0.00,,,0.00,VWS V14.01,2013-07-19 17:52:00,
2013-07-19 10:57:00,63.3,26.9,29.90,SSW,212,2.7,5.8,25,0.00,,,0.00,VWS V14.01,2013-07-19 17:57:00,
2013-07-19 11:02:00,63.5,28.0,29.90,SW,222,3.1,3.1,26,0.00,,,0.00,VWS V14.01,2013-07-19 18:02:00,
2013-07-19 11:07:00,63.5,28.0,29.90,WSW,252,3.6,4.0,26,0.00,,,0.00,VWS V14.01,2013-07-19 18:07:00,
2013-07-19 11:12:00,63.7,28.2,29.90,WSW,237,5.4,5.4,26,0.00,,,0.00,VWS V14.01,2013-07-19 18:12:00,
2013-07-19 11:17:00,63.7,27.2,29.90,SSW,208,3.1,3.1,25,0.00,,,0.00,VWS V14.01,2013-07-19 18:17:00,
2013-07-19 11:22:00,63.5,27.1,29.90,SW,233,2.7,2.7,25,0.00,,,0.00,VWS V14.01,2013-07-19 18:22:00,
2013-07-19 11:27:00,63.5,28.0,29.90,SW,220,4.0,4.0,26,0.00,,,0.00,VWS V14.01,2013-07-19 18:27:00,
2013-07-19 11:32:00,64.0,28.5,29.90,SSW,209,3.6,5.8,26,0.00,,,0.00,VWS V14.01,2013-07-19 18:32:00,
2013-07-19 11:37:00,64.2,27.7,29.90,WSW,251,4.9,5.4,25,0.00,,,0.00,VWS V14.01,2013-07-19 18:37:00,
2013-07-19 11:42:00,64.6,27.0,29.90,SSE,160,4.0,4.0,24,0.00,,,0.00,VWS V14.01,2013-07-19 18:42:00,
2013-07-19 11:47:00,65.3,27.6,29.90,SSW,209,2.7,3.1,24,0.00,,,0.00,VWS V14.01,2013-07-19 18:47:00,
2013-07-19 11:52:00,65.5,26.7,29.90,SSW,199,3.6,3.6,23,0.00,,,0.00,VWS V14.01,2013-07-19 18:52:00,
2013-07-19 11:57:00,65.7,26.9,29.90,WSW,247,4.9,5.4,23,0.00,,,0.00,VWS V14.01,2013-07-19 18:57:00,
2013-07-19 12:02:00,65.1,26.4,29.90,SSW,195,2.7,4.0,23,0.00,,,0.00,VWS V14.01,2013-07-19 19:02:00,
2013-07-19 12:07:00,65.3,26.6,29.90,SW,228,4.0,4.0,23,0.00,,,0.00,VWS V14.01,2013-07-19 19:07:00,
2013-07-19 12:12:00,64.9,27.3,29.90,SW,233,3.6,3.6,24,0.00,,,0.00,VWS V14.01,2013-07-19 19:12:00,
2013-07-19 12:17:00,64.9,27.3,29.90,SSW,197,4.9,4.9,24,0.00,,,0.00,VWS V14.01,2013-07-19 19:17:00,
2013-07-19 12:22:00,65.3,27.6,29.90,SW,216,5.8,5.8,24,0.00,,,0.00,VWS V14.01,2013-07-19 19:22:00,
2013-07-19 12:27:00,65.3,26.6,29.90,SW,231,6.3,6.3,23,0.00,,,0.00,VWS V14.01,2013-07-19 19:27:00,
2013-07-19 12:32:00,64.8,26.1,29.90,SSE,156,2.2,5.4,23,0.00,,,0.00,VWS V14.01,2013-07-19 19:32:00,
2013-07-19 12:37:00,64.8,27.2,29.90,SSW,212,2.7,3.1,24,0.00,,,0.00,VWS V14.01,2013-07-19 19:37:00,
2013-07-19 12:42:00,65.3,27.6,29.90,SW,233,5.8,7.6,24,0.00,,,0.00,VWS V14.01,2013-07-19 19:42:00,
2013-07-19 12:47:00,65.7,26.9,29.90,SE,128,2.7,3.6,23,0.00,,,0.00,VWS V14.01,2013-07-19 19:47:00,
2013-07-19 12:52:00,66.4,27.5,29.87,West,265,6.3,6.3,23,0.00,,,0.00,VWS V14.01,2013-07-19 19:52:00,
2013-07-19 12:57:00,66.6,24.3,29.87,SW,236,2.7,5.8,20,0.00,,,0.00,VWS V14.01,2013-07-19 19:57:00,
2013-07-19 13:02:00,66.6,24.3,29.87,SW,236,3.6,6.7,20,0.00,,,0.00,VWS V14.01,2013-07-19 20:02:00,
2013-07-19 13:07:00,66.6,24.3,29.87,SSW,213,3.6,5.4,20,0.00,,,0.00,VWS V14.01,2013-07-19 20:07:00,
2013-07-19 13:12:00,66.4,24.1,29.87,WSW,247,4.0,6.3,20,0.00,,,0.00,VWS V14.01,2013-07-19 20:12:00,
2013-07-19 13:17:00,66.0,27.2,29.87,SE,134,3.6,4.9,23,0.00,,,0.00,VWS V14.01,2013-07-19 20:17:00,
2013-07-19 13:22:00,65.8,27.0,29.87,WSW,256,4.9,6.3,23,0.00,,,0.00,VWS V14.01,2013-07-19 20:22:00,
2013-07-19 13:27:00,65.3,26.6,29.87,SW,236,3.6,5.8,23,0.00,,,0.00,VWS V14.01,2013-07-19 20:27:00,
2013-07-19 13:32:00,65.3,27.6,29.87,SW,216,3.1,4.0,24,0.00,,,0.00,VWS V14.01,2013-07-19 20:32:00,
2013-07-19 13:37:00,65.7,26.9,29.87,WSW,240,4.9,4.9,23,0.00,,,0.00,VWS V14.01,2013-07-19 20:37:00,
2013-07-19 13:43:00,66.0,27.2,29.87,WSW,237,3.1,5.8,23,0.00,,,0.00,VWS V14.01,2013-07-19 20:43:00,
2013-07-19 13:48:00,66.2,27.3,29.87,SSW,208,3.1,4.0,23,0.00,,,0.00,VWS V14.01,2013-07-19 20:48:00,
2013-07-19 13:53:00,66.0,27.2,29.87,WSW,245,4.0,5.8,23,0.00,,,0.00,VWS V14.01,2013-07-19 20:53:00,
2013-07-19 13:58:00,66.0,27.2,29.87,SSW,192,2.7,5.4,23,0.00,,,0.00,VWS V14.01,2013-07-19 20:58:00,
2013-07-19 14:03:00,66.9,26.9,29.87,SSW,202,5.8,5.8,22,0.00,,,0.00,VWS V14.01,2013-07-19 21:03:00,
2013-07-19 14:08:00,67.1,24.7,29.87,South,169,4.0,4.9,20,0.00,,,0.00,VWS V14.01,2013-07-19 21:08:00,
2013-07-19 14:13:00,67.1,20.9,29.87,West,271,0.0,2.2,17,0.00,,,0.00,VWS V14.01,2013-07-19 21:13:00,
2013-07-19 14:18:00,67.3,21.0,29.87,SW,225,4.9,5.4,17,0.00,,,0.00,VWS V14.01,2013-07-19 21:18:00,
2013-07-19 14:23:00,67.3,21.0,29.87,SE,130,3.1,3.6,17,0.00,,,0.00,VWS V14.01,2013-07-19 21:23:00,
2013-07-19 14:28:00,67.6,21.3,29.87,WSW,246,6.3,6.3,17,0.00,,,0.00,VWS V14.01,2013-07-19 21:28:00,
2013-07-19 14:33:00,67.6,21.3,29.87,SSW,210,5.8,5.8,17,0.00,,,0.00,VWS V14.01,2013-07-19 21:33:00,
2013-07-19 14:38:00,67.6,18.4,29.87,SW,223,4.9,4.9,15,0.00,,,0.00,VWS V14.01,2013-07-19 21:38:00,
2013-07-19 14:43:00,67.8,18.5,29.87,SSW,206,4.0,4.0,15,0.00,,,0.00,VWS V14.01,2013-07-19 21:43:00,
2013-07-19 14:48:00,68.0,18.7,29.87,West,277,6.3,6.3,15,0.00,,,0.00,VWS V14.01,2013-07-19 21:48:00,
2013-07-19 14:53:00,68.2,18.8,29.87,SSW,204,4.9,4.9,15,0.00,,,0.00,VWS V14.01,2013-07-19 21:53:00,
2013-07-19 14:58:00,68.4,19.0,29.87,SW,223,3.6,4.0,15,0.00,,,0.00,VWS V14.01,2013-07-19 21:58:00,
2013-07-19 15:03:00,68.5,19.1,29.87,WSW,245,5.4,5.4,15,0.00,,,0.00,VWS V14.01,2013-07-19 22:03:00,
2013-07-19 15:08:00,68.4,19.0,29.87,WSW,253,5.4,5.4,15,0.00,,,0.00,VWS V14.01,2013-07-19 22:08:00,
2013-07-19 15:13:00,68.2,18.8,29.87,SSW,196,3.6,3.6,15,0.00,,,0.00,VWS V14.01,2013-07-19 22:13:00,
2013-07-19 15:18:00,68.5,19.1,29.87,SW,229,4.5,6.3,15,0.00,,,0.00,VWS V14.01,2013-07-19 22:18:00,
2013-07-19 15:23:00,68.5,19.1,29.84,WSW,244,2.2,4.9,15,0.00,,,0.00,VWS V14.01,2013-07-19 22:23:00,
2013-07-19 15:28:00,68.5,19.1,29.84,SSW,193,4.9,4.9,15,0.00,,,0.00,VWS V14.01,2013-07-19 22:28:00,
2013-07-19 15:33:00,68.4,19.0,29.84,SSE,154,3.1,3.1,15,0.00,,,0.00,VWS V14.01,2013-07-19 22:33:00,
2013-07-19 15:38:00,68.5,19.1,29.84,SW,217,4.0,5.8,15,0.00,,,0.00,VWS V14.01,2013-07-19 22:38:00,
2013-07-19 15:43:00,69.1,19.5,29.84,WSW,256,6.3,6.3,15,0.00,,,0.00,VWS V14.01,2013-07-19 22:43:00,
2013-07-19 15:48:00,68.4,19.0,29.84,SW,223,5.4,5.8,15,0.00,,,0.00,VWS V14.01,2013-07-19 22:48:00,
2013-07-19 15:53:00,67.5,18.2,29.84,SW,219,5.4,5.4,15,0.00,,,0.00,VWS V14.01,2013-07-19 22:53:00,
2013-07-19 15:58:00,67.6,18.4,29.84,SW,224,3.6,3.6,15,0.00,,,0.00,VWS V14.01,2013-07-19 22:58:00,
2013-07-19 16:03:00,67.6,18.4,29.84,SW,218,4.9,4.9,15,0.00,,,0.00,VWS V14.01,2013-07-19 23:03:00,
2013-07-19 16:08:00,67.3,21.0,29.84,SW,223,4.0,5.4,17,0.00,,,0.00,VWS V14.01,2013-07-19 23:08:00,
2013-07-19 16:13:00,66.9,20.7,29.84,SSW,212,3.6,5.8,17,0.00,,,0.00,VWS V14.01,2013-07-19 23:13:00,
2013-07-19 16:18:00,66.9,20.7,29.84,SW,226,2.7,7.2,17,0.00,,,0.00,VWS V14.01,2013-07-19 23:18:00,
2013-07-19 16:23:00,66.9,24.6,29.84,SSW,209,5.8,5.8,20,0.00,,,0.00,VWS V14.01,2013-07-19 23:23:00,
2013-07-19 16:28:00,66.9,20.7,29.84,SW,216,7.2,7.2,17,0.00,,,0.00,VWS V14.01,2013-07-19 23:28:00,
2013-07-19 16:33:00,66.4,24.1,29.84,South,191,5.4,6.3,20,0.00,,,0.00,VWS V14.01,2013-07-19 23:33:00,
2013-07-19 16:38:00,66.4,24.1,29.84,SW,216,3.1,4.0,20,0.00,,,0.00,VWS V14.01,2013-07-19 23:38:00,
2013-07-19 16:43:00,66.2,24.0,29.84,ESE,114,2.7,4.9,20,0.00,,,0.00,VWS V14.01,2013-07-19 23:43:00,
2013-07-19 16:48:00,66.4,24.1,29.84,SSW,198,2.7,3.6,20,0.00,,,0.00,VWS V14.01,2013-07-19 23:48:00,
2013-07-19 16:53:00,66.4,24.1,29.84,SSW,200,2.7,4.9,20,0.00,,,0.00,VWS V14.01,2013-07-19 23:53:00,
2013-07-19 16:58:00,66.0,23.8,29.84,SW,227,5.4,5.4,20,0.00,,,0.00,VWS V14.01,2013-07-19 23:58:00,
2013-07-19 17:03:00,65.7,23.5,29.84,WSW,237,3.6,5.4,20,0.00,,,0.00,VWS V14.01,2013-07-20 00:03:00,
2013-07-19 17:08:00,65.5,26.7,29.84,SW,218,6.3,8.1,23,0.00,,,0.00,VWS V14.01,2013-07-20 00:08:00,
2013-07-19 17:13:00,65.5,26.7,29.84,SSW,212,3.6,4.0,23,0.00,,,0.00,VWS V14.01,2013-07-20 00:13:00,
2013-07-19 17:18:00,64.9,26.3,29.84,SW,236,3.6,5.4,23,0.00,,,0.00,VWS V14.01,2013-07-20 00:18:00,
2013-07-19 17:23:00,64.6,26.0,29.84,SSW,197,3.6,3.6,23,0.00,,,0.00,VWS V14.01,2013-07-20 00:23:00,
2013-07-19 17:28:00,64.8,26.1,29.84,SSW,210,5.8,5.8,23,0.00,,,0.00,VWS V14.01,2013-07-20 00:28:00,
2013-07-19 17:33:00,64.9,26.3,29.84,SW,227,5.8,6.3,23,0.00,,,0.00,VWS V14.01,2013-07-20 00:33:00,
2013-07-19 17:38:00,64.6,26.0,29.84,SW,223,5.8,6.3,23,0.00,,,0.00,VWS V14.01,2013-07-20 00:38:00,
2013-07-19 17:43:00,64.0,26.5,29.84,SW,234,4.0,6.3,24,0.00,,,0.00,VWS V14.01,2013-07-20 00:43:00,
2013-07-19 17:48:00,63.5,26.1,29.84,SW,230,6.7,6.7,24,0.00,,,0.00,VWS V14.01,2013-07-20 00:48:00,
2013-07-19 17:53:00,63.3,25.9,29.81,WSW,256,4.9,5.8,24,0.00,,,0.00,VWS V14.01,2013-07-20 00:53:00,
2013-07-19 17:58:00,63.1,26.8,29.81,WSW,238,2.7,5.8,25,0.00,,,0.00,VWS V14.01,2013-07-20 00:58:00,
2013-07-19 18:03:00,62.8,26.5,29.81,SSW,201,4.0,4.0,25,0.00,,,0.00,VWS V14.01,2013-07-20 01:03:00,
2013-07-19 18:08:00,62.1,25.9,29.81,SW,222,4.9,5.4,25,0.00,,,0.00,VWS V14.01,2013-07-20 01:08:00,
2013-07-19 18:13:00,61.3,27.1,29.81,WSW,243,5.8,8.3,27,0.00,,,0.00,VWS V14.01,2013-07-20 01:13:00,
2013-07-19 18:18:00,60.8,29.2,29.81,SSW,207,5.8,6.3,30,0.00,,,0.00,VWS V14.01,2013-07-20 01:18:00,
2013-07-19 18:23:00,60.3,29.5,29.81,SW,217,5.4,5.4,31,0.00,,,0.00,VWS V14.01,2013-07-20 01:23:00,
2013-07-19 18:28:00,59.5,31.2,29.81,SW,232,5.4,6.3,34,0.00,,,0.00,VWS V14.01,2013-07-20 01:28:00,
2013-07-19 18:33:00,59.2,31.6,29.81,WSW,239,3.1,5.8,35,0.00,,,0.00,VWS V14.01,2013-07-20 01:33:00,
2013-07-19 18:38:00,58.8,31.2,29.81,SSW,193,5.4,6.3,35,0.00,,,0.00,VWS V14.01,2013-07-20 01:38:00,
2013-07-19 18:43:00,58.3,31.5,29.81,SSW,206,5.4,6.3,36,0.00,,,0.00,VWS V14.01,2013-07-20 01:43:00,
2013-07-19 18:48:00,57.9,32.5,29.81,WSW,249,4.0,8.3,38,0.00,,,0.00,VWS V14.01,2013-07-20 01:48:00,
2013-07-19 18:53:00,57.7,33.0,29.81,SSW,195,3.6,4.0,39,0.00,,,0.00,VWS V14.01,2013-07-20 01:53:00,
2013-07-19 18:59:00,57.7,33.0,29.81,South,170,4.0,5.8,39,0.00,,,0.00,VWS V14.01,2013-07-20 01:59:00,
2013-07-19 19:04:00,57.7,33.6,29.81,South,187,3.1,4.0,40,0.00,,,0.00,VWS V14.01,2013-07-20 02:04:00,
2013-07-19 19:09:00,57.9,33.8,29.81,SW,226,4.0,6.3,40,0.00,,,0.00,VWS V14.01,2013-07-20 02:09:00,
2013-07-19 19:14:00,57.9,33.8,29.81,SW,235,5.4,5.4,40,0.00,,,0.00,VWS V14.01,2013-07-20 02:14:00,
2013-07-19 19:19:00,57.6,32.8,29.81,South,189,5.8,5.8,39,0.00,,,0.00,VWS V14.01,2013-07-20 02:19:00,
2013-07-19 19:24:00,57.4,33.3,29.81,SW,217,5.4,6.3,40,0.00,,,0.00,VWS V14.01,2013-07-20 02:24:00,
2013-07-19 19:29:00,57.2,33.1,29.81,WSW,247,5.8,6.3,40,0.00,,,0.00,VWS V14.01,2013-07-20 02:29:00,
2013-07-19 19:34:00,56.8,34.0,29.81,SSW,207,6.3,6.3,42,0.00,,,0.00,VWS V14.01,2013-07-20 02:34:00,
2013-07-19 19:39:00,56.7,34.4,29.81,SW,226,5.4,5.4,43,0.00,,,0.00,VWS V14.01,2013-07-20 02:39:00,
2013-07-19 19:44:00,56.5,35.4,29.81,SSW,208,3.1,4.0,45,0.00,,,0.00,VWS V14.01,2013-07-20 02:44:00,
2013-07-19 19:49:00,56.7,36.1,29.81,SW,222,5.4,5.4,46,0.00,,,0.00,VWS V14.01,2013-07-20 02:49:00,
2013-07-19 19:54:00,56.7,36.1,29.81,South,186,4.0,5.4,46,0.00,,,0.00,VWS V14.01,2013-07-20 02:54:00,
2013-07-19 19:59:00,56.7,36.1,29.81,SW,220,3.6,4.9,46,0.00,,,0.00,VWS V14.01,2013-07-20 02:59:00,
2013-07-19 20:04:00,56.5,36.0,29.81,SW,225,3.1,3.6,46,0.00,,,0.00,VWS V14.01,2013-07-20 03:04:00,
2013-07-19 20:09:00,56.3,35.8,29.81,SSW,213,4.9,4.9,46,0.00,,,0.00,VWS V14.01,2013-07-20 03:09:00,
2013-07-19 20:14:00,56.3,35.8,29.81,SW,223,4.0,6.3,46,0.00,,,0.00,VWS V14.01,2013-07-20 03:14:00,
2013-07-19 20:19:00,56.1,35.6,29.81,SW,217,3.1,3.6,46,0.00,,,0.00,VWS V14.01,2013-07-20 03:19:00,
2013-07-19 20:24:00,56.1,36.2,29.81,South,169,3.1,5.8,47,0.00,,,0.00,VWS V14.01,2013-07-20 03:24:00,
2013-07-19 20:29:00,55.9,36.0,29.81,SE,143,3.1,4.9,47,0.00,,,0.00,VWS V14.01,2013-07-20 03:29:00,
2013-07-19 20:34:00,55.9,36.0,29.81,WSW,243,3.6,5.4,47,0.00,,,0.00,VWS V14.01,2013-07-20 03:34:00,
2013-07-19 20:39:00,55.8,36.4,29.81,SSW,211,5.4,5.4,48,0.00,,,0.00,VWS V14.01,2013-07-20 03:39:00,
2013-07-19 20:44:00,55.8,36.4,29.81,SW,217,4.0,4.9,48,0.00,,,0.00,VWS V14.01,2013-07-20 03:44:00,
2013-07-19 20:49:00,55.8,36.9,29.81,SW,214,3.6,3.6,49,0.00,,,0.00,VWS V14.01,2013-07-20 03:49:00,
2013-07-19 20:54:00,55.8,37.4,29.81,South,189,4.0,4.0,50,0.00,,,0.00,VWS V14.01,2013-07-20 03:54:00,
2013-07-19 20:59:00,55.6,37.2,29.81,SSW,196,3.1,3.6,50,0.00,,,0.00,VWS V14.01,2013-07-20 03:59:00,
2013-07-19 21:01:00,55.6,37.2,29.81,SE,138,4.0,4.9,50,0.00,,,0.00,VWS V14.01,2013-07-20 04:01:00,
2013-07-19 21:02:00,55.6,37.2,29.81,SW,222,4.0,4.0,50,0.00,,,0.00,VWS V14.01,2013-07-20 04:02:00,
2013-07-19 21:07:00,55.6,37.2,29.84,SW,229,4.9,4.9,50,0.00,,,0.00,VWS V14.01,2013-07-20 04:07:00,
2013-07-19 21:12:00,55.6,37.8,29.84,SW,217,4.9,5.8,51,0.00,,,0.00,VWS V14.01,2013-07-20 04:12:00,
2013-07-19 21:17:00,55.6,38.2,29.84,SW,214,3.1,4.0,52,0.00,,,0.00,VWS V14.01,2013-07-20 04:17:00,
2013-07-19 21:22:00,55.6,38.2,29.84,NE,38,2.7,4.0,52,0.00,,,0.00,VWS V14.01,2013-07-20 04:22:00,
2013-07-19 21:27:00,55.6,38.2,29.84,SSW,195,3.6,4.9,52,0.00,,,0.00,VWS V14.01,2013-07-20 04:27:00,
2013-07-19 21:32:00,55.4,38.6,29.84,SW,230,5.8,6.3,53,0.00,,,0.00,VWS V14.01,2013-07-20 04:32:00,
2013-07-19 21:37:00,55.4,38.6,29.84,SSE,156,5.8,5.8,53,0.00,,,0.00,VWS V14.01,2013-07-20 04:37:00,
2013-07-19 21:42:00,55.2,38.9,29.84,SW,229,3.6,4.0,54,0.00,,,0.00,VWS V14.01,2013-07-20 04:42:00,
2013-07-19 21:47:00,55.2,38.9,29.84,SSW,212,4.0,4.0,54,0.00,,,0.00,VWS V14.01,2013-07-20 04:47:00,
2013-07-19 21:52:00,55.2,39.3,29.84,SSW,203,4.0,4.0,55,0.00,,,0.00,VWS V14.01,2013-07-20 04:52:00,
2013-07-19 21:57:00,55.2,39.3,29.84,SSW,209,2.7,3.1,55,0.00,,,0.00,VWS V14.01,2013-07-20 04:57:00,
2013-07-19 22:02:00,55.2,39.3,29.84,SW,216,2.2,3.6,55,0.00,,,0.00,VWS V14.01,2013-07-20 05:02:00,
2013-07-19 22:07:00,55.4,39.5,29.84,SSW,212,2.7,6.3,55,0.00,,,0.00,VWS V14.01,2013-07-20 05:07:00,
2013-07-19 22:12:00,55.4,40.0,29.84,SW,226,3.6,5.8,56,0.00,,,0.00,VWS V14.01,2013-07-20 05:12:00,
2013-07-19 22:17:00,55.4,40.0,29.84,SSW,198,4.9,4.9,56,0.00,,,0.00,VWS V14.01,2013-07-20 05:17:00,
2013-07-19 22:22:00,55.4,40.4,29.84,SSW,206,5.8,5.8,57,0.00,,,0.00,VWS V14.01,2013-07-20 05:22:00,
2013-07-19 22:27:00,55.2,40.3,29.84,WSW,253,2.7,3.6,57,0.00,,,0.00,VWS V14.01,2013-07-20 05:27:00,
2013-07-19 22:32:00,55.2,40.3,29.84,SSW,192,3.1,4.9,57,0.00,,,0.00,VWS V14.01,2013-07-20 05:32:00,
2013-07-19 22:37:00,55.2,40.7,29.84,SSW,213,3.1,6.3,58,0.00,,,0.00,VWS V14.01,2013-07-20 05:37:00,
2013-07-19 22:42:00,55.2,40.7,29.84,SSW,209,4.0,4.0,58,0.00,,,0.00,VWS V14.01,2013-07-20 05:42:00,
2013-07-19 22:47:00,55.4,40.9,29.84,SSW,208,5.8,7.6,58,0.00,,,0.00,VWS V14.01,2013-07-20 05:47:00,
2013-07-19 22:52:00,55.2,41.2,29.84,SSW,212,5.4,5.4,59,0.00,,,0.00,VWS V14.01,2013-07-20 05:52:00,
2013-07-19 22:57:00,55.4,41.3,29.84,SE,137,4.0,4.0,59,0.00,,,0.00,VWS V14.01,2013-07-20 05:57:00,
2013-07-19 23:02:00,55.4,41.8,29.84,SSE,162,3.6,4.0,60,0.00,,,0.00,VWS V14.01,2013-07-20 06:02:00,
2013-07-19 23:07:00,55.4,41.8,29.84,SSW,207,4.9,5.8,60,0.00,,,0.00,VWS V14.01,2013-07-20 06:07:00,
2013-07-19 23:12:00,55.4,41.8,29.84,SSW,200,2.7,4.0,60,0.00,,,0.00,VWS V14.01,2013-07-20 06:12:00,
2013-07-19 23:17:00,55.4,42.2,29.84,SW,228,3.1,3.6,61,0.00,,,0.00,VWS V14.01,2013-07-20 06:17:00,
2013-07-19 23:22:00,55.6,42.4,29.84,SSW,199,3.6,4.0,61,0.00,,,0.00,VWS V14.01,2013-07-20 06:22:00,
2013-07-19 23:27:00,55.8,43.0,29.84,SW,224,4.0,4.0,62,0.00,,,0.00,VWS V14.01,2013-07-20 06:27:00,
2013-07-19 23:32:00,55.8,43.0,29.84,SSW,197,3.1,4.0,62,0.00,,,0.00,VWS V14.01,2013-07-20 06:32:00,
2013-07-19 23:37:00,55.6,42.4,29.81,SSW,205,4.0,4.9,61,0.00,,,0.00,VWS V14.01,2013-07-20 06:37:00,
2013-07-19 23:42:00,55.6,42.4,29.81,SW,216,4.0,4.0,61,0.00,,,0.00,VWS V14.01,2013-07-20 06:42:00,
2013-07-19 23:47:00,55.4,42.2,29.81,SW,223,4.9,5.4,61,0.00,,,0.00,VWS V14.01,2013-07-20 06:47:00,
2013-07-19 23:52:00,55.4,41.8,29.81,SSW,199,2.7,4.9,60,0.00,,,0.00,VWS V14.01,2013-07-20 06:52:00,
2013-07-19 23:57:00,55.2,41.6,29.81,SW,222,3.6,4.0,60,0.00,,,0.00,VWS V14.01,2013-07-20 06:57:00,